This is the latest recevied weather packets stored in our database for station/object W0RMT-13. If no packets are shown the sender has not sent any weather packets the latest 10 day(s).
| Time | Temp. | Humidity | Pressure | Rain* | Wind** | Luminosity | Snow |
|---|---|---|---|---|---|---|---|
| 1777442431 | 5.56° C | 95% | 1021 hPa | 0.25 mm | - | 0 W/m² | - |
| 1777441801 | 5.56° C | 95% | 1020.5 hPa | 0.25 mm | - | 0 W/m² | - |
| 1777441141 | 5.56° C | 93% | 1020.5 hPa | 0.25 mm | - | 0 W/m² | - |
| 1777440408 | 6.11° C | 91% | 1020.5 hPa | 0.51 mm | - | 0 W/m² | - |
| 1777439809 | 6.11° C | 90% | 1020.5 hPa | 0.51 mm | - | 0 W/m² | - |
| 1777439086 | 6.11° C | 88% | 1021 hPa | 0.25 mm | - | 0 W/m² | - |
| 1777438424 | 6.67° C | 87% | 1020.5 hPa | 0.25 mm | - | 0 W/m² | - |
| 1777437801 | 6.67° C | 85% | 1021 hPa | 0.25 mm | - | 0 W/m² | - |
| 1777437126 | 7.22° C | 81% | 1021 hPa | 0.25 mm | - | 0 W/m² | - |
| 1777436505 | 7.78° C | 78% | 1020.5 hPa | 0 mm | - | 0 W/m² | - |
| 1777435861 | 8.33° C | 73% | 1020.5 hPa | 0 mm | - | 0 W/m² | - |
| 1777435208 | 8.89° C | 62% | 1020.2 hPa | 0 mm | - | 0 W/m² | - |
| 1777434549 | 9.44° C | 57% | 1019.8 hPa | 0 mm | - | 0 W/m² | - |
| 1777433925 | 10° C | 55% | 1019.4 hPa | 0 mm | - | 0 W/m² | - |
| 1777433247 | 10.56° C | 51% | 1019.4 hPa | 0 mm | - | 0 W/m² | - |
| 1777432621 | 10.56° C | 48% | 1018.7 hPa | 0 mm | - | 0 W/m² | - |
| 1777431952 | 10.56° C | 47% | 1018.2 hPa | 0 mm | - | 0 W/m² | - |
| 1777431265 | 10.56° C | 46% | 1018.2 hPa | 0 mm | - | 0 W/m² | - |
| 1777430591 | 11.11° C | 47% | 1017.8 hPa | 0 mm | - | 0 W/m² | - |
| 1777429932 | 11.11° C | 47% | 1017.8 hPa | 0 mm | - | 0 W/m² | - |
| 1777429310 | 11.11° C | 45% | 1017.4 hPa | 0 mm | - | 0 W/m² | - |
| 1777428648 | 11.67° C | 46% | 1017 hPa | 0 mm | - | 0 W/m² | - |
| 1777427972 | 11.67° C | 48% | 1017.4 hPa | 0 mm | - | 0 W/m² | - |
| 1777427341 | 12.78° C | 45% | 1016.7 hPa | 0 mm | - | 0 W/m² | - |
| 1777426685 | 12.78° C | 43% | 1016.7 hPa | 0 mm | - | 4 W/m² | - |
* Rain latest hour (hover to see other rain measurements)
** Current wind speed in m/s (hover to see current wind gust speed)